Location: Cluj-Napoca
(46.7712°N, 23.6236°E)
Time: 21:58:15
(UTC+02:00)

First-Move - Pass Details

Date: 30 November 2021
Orbit: 574 x 665 km, 97.6° (Epoch: 28 January)

Event Time Altitude Azimuth Distance (km) Brightness Sun altitude
Rises 17:11:38 0° 209° (SSW) 2,817 ? -5.6°
Reaches altitude 10° 17:14:29 10° 231° (SW) 1,938 ? -6.1°
Maximum altitude 17:17:09 16° 270° (W) 1,586 ? -6.5°
Drops below altitude 10° 17:19:52 10° 310° (NW) 1,984 ? -6.9°
Sets 17:22:51 0° 331° (NNW) 2,917 ? -7.4°
